Regional Weather Roundup
Issued by NWS

Home | Current Version | Previous Version | Text Only | Print | Product List | Glossary Off
Versions: 1 2 3 4 5 6 7 8 9 10 11 12 13 14 15 16 17 18 19 20 21 22 23 24 25 26 27 28 29 30 31 32 33 34 35 36 37 38 39 40 41 42 43 44 45 46 47 48 49 50

828
ASUS43 KFSD 111702
RWRSD

WEATHER ROUNDUP FOR SOUTH DAKOTA
NATIONAL WEATHER SERVICE SIOUX FALLS SD
1100 AM CST THU FEB 11 2016

NOTE: "FAIR" INDICATES FEW OR NO CLOUDS BELOW 12,000 FEET WITH NO
SIGNIFICANT WEATHER AND/OR OBSTRUCTIONS TO VISIBILITY.


SDZ001>005-009-010-012>017-111800-
NORTHWEST AND NORTH CENTRAL SOUTH DAKOTA

CITY           SKY/WX    TMP DP  RH WIND       PRES   REMARKS
BUFFALO          N/A     47  30  51 NW33G40   29.89F
FAITH            N/A     31  26  82 S10       30.01F WCI  22
MOBRIDGE       LGT SNOW  24  21  88 SE9       30.08S VSB 3/4 WCI  14
$$

SDZ012>016-024>037-041>051-057-063-072>074-111800-
SOUTHWEST AND SOUTH CENTRAL SOUTH DAKOTA

CITY           SKY/WX    TMP DP  RH WIND       PRES   REMARKS
RAPID CTY ARPT SUNNY     40  33  76 VRB3      30.01S
PIERRE         CLOUDY    26  23  88 SE9       30.10S WCI  17
CUSTER         MOSUNNY   47  24  40 NW15G29   30.04R
ELLSWORTH AFB  MOSUNNY   48  31  51 NW17      29.99F
PHILIP         CLOUDY    35  29  78 S8        30.03F WCI  29
PINE RIDGE     CLOUDY    44  27  51 W9        30.05R
WINNER         PTSUNNY   32  24  72 S12       30.09S WCI  23
$$

SDZ004>011-016>023-039-040-111800-
NORTHEAST SOUTH DAKOTA

CITY           SKY/WX    TMP DP  RH WIND       PRES   REMARKS
ABERDEEN       LGT SNOW  19  13  77 S7        30.18S WCI  10
WATERTOWN      LGT SNOW  14   8  77 S10       30.16S WCI   1
BROOKINGS      LGT SNOW  14   8  77 S12       30.18F WCI   0
SISSETON         N/A     11   6  81 S9        30.21F WCI  -2
$$

SDZ017-020-022-023-036>040-048>070-111800-
SOUTHEAST SOUTH DAKOTA

CITY           SKY/WX    TMP DP  RH WIND       PRES   REMARKS
SIOUX FALLS    CLOUDY    16   7  67 S10       30.23F WCI   4
HURON          CLOUDY    20  15  81 SE12      30.17F WCI   8
CHAMBERLAIN    CLOUDY    24  22  91 SE9       30.13R WCI  15
MITCHELL       LGT SNOW  21  16  81 S17       30.18F WCI   7
YANKTON        CLOUDY    19  12  73 SE15      30.23F WCI   5
$$

ABBREVIATIONS USED IN REMARKS
   TC - TEMPERATURE IN CELSIUS
  WCI - WIND CHILL INDEX
   HX - HEAT INDEX
  VSB - VISIBILITY





USA.gov is the U.S. government's official web portal to all federal, state and local government web resources and services.